This is the latest recevied weather packets stored in our database for station/object N5JXS. If no packets are shown the sender has not sent any weather packets the latest 10 day(s).
| Time | Temp. | Humidity | Pressure | Rain* | Wind** | Luminosity | Snow |
|---|---|---|---|---|---|---|---|
| 1778035350 | -2.22° C | 98% | 1015.1 hPa | 0 mm | - | 0 W/m² | - |
| 1778035046 | -2.22° C | 98% | 1015.3 hPa | 0 mm | - | 0 W/m² | - |
| 1778034743 | -2.22° C | 98% | 1015.6 hPa | 0 mm | - | 0 W/m² | - |
| 1778034440 | -2.22° C | 98% | 1015.4 hPa | 0 mm | - | 0 W/m² | - |
| 1778034138 | -2.22° C | 98% | 1015.3 hPa | 0 mm | - | 0 W/m² | - |
| 1778033835 | -2.22° C | 98% | 1015.1 hPa | 0 mm | - | 0 W/m² | - |
| 1778033532 | -2.22° C | 98% | 1015.4 hPa | 0 mm | - | 0 W/m² | - |
| 1778033229 | -2.22° C | 98% | 1015.3 hPa | 0 mm | - | 0 W/m² | - |
| 1778032927 | -2.22° C | 98% | 1015.3 hPa | 0 mm | - | 0 W/m² | - |
| 1778032624 | -1.67° C | 98% | 1014.9 hPa | 0 mm | - | 0 W/m² | - |
| 1778032321 | -1.67° C | 98% | 1014.9 hPa | 0 mm | - | 0 W/m² | - |
| 1778032018 | -1.67° C | 98% | 1014.9 hPa | 0 mm | - | 0 W/m² | - |
| 1778031714 | -1.67° C | 98% | 1014.4 hPa | 0 mm | - | 0 W/m² | - |
| 1778031412 | -1.67° C | 98% | 1014.1 hPa | 0 mm | - | 0 W/m² | - |
| 1778031109 | -1.11° C | 98% | 1014.6 hPa | 0 mm | - | 1 W/m² | - |
| 1778030805 | -1.11° C | 98% | 1014.6 hPa | 0 mm | - | 2 W/m² | - |
| 1778030502 | -0.56° C | 98% | 1014.3 hPa | 0 mm | - | 3 W/m² | - |
| 1778030200 | -0.56° C | 98% | 1014.3 hPa | 0 mm | - | 4 W/m² | - |
| 1778029895 | 0° C | 98% | 1014 hPa | 0 mm | - | 6 W/m² | - |
| 1778029595 | 0° C | 98% | 1014.4 hPa | 0 mm | - | 8 W/m² | - |
| 1778029291 | 0° C | 98% | 1014.4 hPa | 0 mm | - | 12 W/m² | - |
| 1778028988 | 0° C | 98% | 1014.4 hPa | 0 mm | - | 9 W/m² | - |
| 1778028685 | 0° C | 98% | 1014.3 hPa | 0 mm | - | 8 W/m² | - |
| 1778028381 | 0° C | 98% | 1014.3 hPa | 0 mm | - | 8 W/m² | - |
| 1778028079 | 0° C | 98% | 1014.5 hPa | 0 mm | - | 6 W/m² | - |
* Rain latest hour (hover to see other rain measurements)
** Current wind speed in m/s (hover to see current wind gust speed)